| time (UTC) | temp F | wind direction | speed MPH | gust MPH | rain 1hr in | rain 24hr in | rain mn in | humidity % | barometer mb |
| 20260507200818 | 74 | 169 | 6.0 | 14.0 | 0.00 | 0.00 | 0.00 | 38 | 1014.7 |
| 20260507200312 | 74 | 287 | 5.0 | 11.0 | 0.00 | 0.00 | 0.00 | 39 | 1014.6 |
| 20260507195806 | 74 | 225 | 6.0 | 13.0 | 0.00 | 0.00 | 0.00 | 37 | 1014.8 |
| 20260507195300 | 74 | 262 | 6.0 | 13.0 | 0.00 | 0.00 | 0.00 | 43 | 1014.8 |
| 20260507194754 | 74 | 194 | 5.0 | 13.0 | 0.00 | 0.00 | 0.00 | 39 | 1014.8 |
| 20260507194247 | 74 | 234 | 4.0 | 10.0 | 0.00 | 0.00 | 0.00 | 41 | 1014.8 |
| 20260507193741 | 73 | 179 | 5.0 | 13.0 | 0.00 | 0.00 | 0.00 | 39 | 1014.8 |
| 20260507193236 | 74 | 229 | 6.0 | 15.0 | 0.00 | 0.00 | 0.00 | 39 | 1014.9 |
| 20260507192952 | 74 | 193 | 5.0 | 15.0 | 0.00 | 0.00 | 0.00 | 44 | 1014.8 |
| 20260507192224 | 73 | 197 | 5.0 | 12.0 | 0.00 | 0.00 | 0.00 | 42 | 1014.8 |
| 20260507191718 | 74 | 266 | 6.0 | 10.0 | 0.00 | 0.00 | 0.00 | 40 | 1014.9 |
| 20260507191212 | 74 | 188 | 6.0 | 12.0 | 0.00 | 0.00 | 0.00 | 40 | 1015.0 |
| 20260507190705 | 75 | 227 | 5.0 | 12.0 | 0.00 | 0.00 | 0.00 | 40 | 1015.0 |
| 20260507190200 | 73 | 214 | 4.0 | 10.0 | 0.00 | 0.00 | 0.00 | 43 | 1015.2 |
| 20260507185653 | 73 | 239 | 5.0 | 12.0 | 0.00 | 0.00 | 0.00 | 42 | 1015.2 |
| 20260507185148 | 73 | 181 | 6.0 | 12.0 | 0.00 | 0.00 | 0.00 | 39 | 1015.2 |
| 20260507184642 | 73 | 189 | 5.0 | 13.0 | 0.00 | 0.00 | 0.00 | 45 | 1015.2 |
| 20260507184136 | 73 | 245 | 6.0 | 14.0 | 0.00 | 0.00 | 0.00 | 41 | 1015.2 |
| 20260507183630 | 73 | 197 | 7.0 | 14.0 | 0.00 | 0.00 | 0.00 | 42 | 1015.1 |
| 20260507183123 | 73 | 118 | 8.0 | 16.0 | 0.00 | 0.00 | 0.00 | 44 | 1015.3 |
| 20260507182618 | 73 | 184 | 8.0 | 16.0 | 0.00 | 0.00 | 0.00 | 43 | 1015.4 |
| 20260507182113 | 72 | 139 | 7.0 | 15.0 | 0.00 | 0.00 | 0.00 | 42 | 1015.3 |
| 20260507181605 | 72 | 184 | 7.0 | 15.0 | 0.00 | 0.00 | 0.00 | 42 | 1015.3 |
| 20260507181059 | 72 | 186 | 7.0 | 15.0 | 0.00 | 0.00 | 0.00 | 44 | 1015.4 |
| 20260507180554 | 72 | 146 | 8.0 | 15.0 | 0.00 | 0.00 | 0.00 | 45 | 1015.5 |
| 20260507180047 | 71 | 186 | 9.0 | 17.0 | 0.00 | 0.00 | 0.00 | 45 | 1015.5 |
| 20260507175542 | 70 | 191 | 8.0 | 17.0 | 0.00 | 0.00 | 0.00 | 46 | 1015.5 |
| 20260507175036 | 69 | 191 | 7.0 | 15.0 | 0.00 | 0.00 | 0.00 | 46 | 1015.5 |
| 20260507174529 | 69 | 179 | 7.0 | 15.0 | 0.00 | 0.00 | 0.00 | 49 | 1015.5 |
| 20260507174246 | 69 | 177 | 6.0 | 13.0 | 0.00 | 0.00 | 0.00 | 46 | 1015.7 |
| 20260507173023 | 69 | 227 | 6.0 | 13.0 | 0.00 | 0.00 | 0.00 | 47 | 1015.7 |
| 20260507172524 | 69 | 234 | 6.0 | 12.0 | 0.00 | 0.00 | 0.00 | 46 | 1015.8 |
| 20260507172024 | 69 | 191 | 6.0 | 16.0 | 0.00 | 0.00 | 0.00 | 49 | 1015.8 |
| 20260507171744 | 69 | 199 | 7.0 | 16.0 | 0.00 | 0.00 | 0.00 | 50 | 1015.8 |
| 20260507171245 | 68 | 297 | 6.0 | 13.0 | 0.00 | 0.00 | 0.00 | 50 | 1015.8 |
| 20260507170523 | 68 | 171 | 4.0 | 11.0 | 0.00 | 0.00 | 0.00 | 52 | 1015.8 |
| 20260507170022 | 68 | 303 | 3.0 | 7.0 | 0.00 | 0.00 | 0.00 | 55 | 1015.8 |
| 20260507165521 | 67 | 182 | 4.0 | 10.0 | 0.00 | 0.00 | 0.00 | 53 | 1015.9 |
| 20260507165021 | 67 | 257 | 5.0 | 11.0 | 0.00 | 0.00 | 0.00 | 54 | 1016.0 |
| 20260507164522 | 68 | 297 | 5.0 | 11.0 | 0.00 | 0.00 | 0.00 | 54 | 1015.9 |
| 20260507164022 | 67 | 242 | 3.0 | 8.0 | 0.00 | 0.00 | 0.00 | 54 | 1015.9 |
| 20260507163522 | 67 | 174 | 5.0 | 13.0 | 0.00 | 0.00 | 0.00 | 55 | 1015.8 |
| 20260507163023 | 67 | 193 | 6.0 | 13.0 | 0.00 | 0.00 | 0.00 | 55 | 1015.9 |
| 20260507162519 | 67 | 192 | 5.0 | 10.0 | 0.00 | 0.00 | 0.00 | 57 | 1015.7 |
| 20260507162017 | 66 | 207 | 5.0 | 11.0 | 0.00 | 0.00 | 0.00 | 57 | 1015.8 |
| 20260507161517 | 66 | 168 | 4.0 | 11.0 | 0.00 | 0.00 | 0.00 | 56 | 1015.8 |
| 20260507161018 | 66 | 200 | 5.0 | 14.0 | 0.00 | 0.00 | 0.00 | 58 | 1015.9 |
| 20260507160517 | 65 | 282 | 6.0 | 14.0 | 0.00 | 0.00 | 0.00 | 57 | 1015.8 |
| 20260507160242 | 65 | 172 | 5.0 | 12.0 | 0.00 | 0.00 | 0.00 | 58 | 1015.8 |
| 20260507155518 | 65 | 200 | 5.0 | 12.0 | 0.00 | 0.00 | 0.00 | 58 | 1015.9 |
| 20260507155019 | 65 | 200 | 6.0 | 12.0 | 0.00 | 0.00 | 0.00 | 59 | 1015.9 |
| 20260507154744 | 64 | 173 | 5.0 | 12.0 | 0.00 | 0.00 | 0.00 | 58 | 1015.9 |
| 20260507154015 | 64 | 163 | 5.0 | 10.0 | 0.00 | 0.00 | 0.00 | 59 | 1016.1 |
| 20260507153514 | 64 | 176 | 6.0 | 13.0 | 0.00 | 0.00 | 0.00 | 60 | 1016.1 |
| 20260507153014 | 63 | 155 | 5.0 | 13.0 | 0.00 | 0.00 | 0.00 | 61 | 1016.1 |
| 20260507152514 | 62 | 201 | 6.0 | 13.0 | 0.00 | 0.00 | 0.00 | 63 | 1016.0 |
| 20260507152014 | 62 | 249 | 6.0 | 14.0 | 0.00 | 0.00 | 0.00 | 62 | 1016.1 |
| 20260507151514 | 61 | 180 | 5.0 | 14.0 | 0.00 | 0.00 | 0.00 | 63 | 1015.9 |
| 20260507151239 | 61 | 220 | 4.0 | 9.0 | 0.00 | 0.00 | 0.00 | 65 | 1016.0 |
| 20260507150513 | 60 | 237 | 4.0 | 10.0 | 0.00 | 0.00 | 0.00 | 65 | 1015.9 |
| 20260507150014 | 60 | 266 | 4.0 | 10.0 | 0.00 | 0.00 | 0.00 | 65 | 1015.9 |
| 20260507145509 | 60 | 180 | 4.0 | 12.0 | 0.00 | 0.00 | 0.00 | 66 | 1016.0 |
| 20260507145009 | 60 | 209 | 5.0 | 12.0 | 0.00 | 0.00 | 0.00 | 66 | 1015.9 |
| 20260507144509 | 59 | 178 | 5.0 | 11.0 | 0.00 | 0.00 | 0.00 | 67 | 1015.8 |
| 20260507144011 | 59 | 214 | 4.0 | 10.0 | 0.00 | 0.00 | 0.00 | 70 | 1015.6 |
| 20260507143511 | 58 | 176 | 4.0 | 10.0 | 0.00 | 0.00 | 0.00 | 70 | 1015.7 |
| 20260507143009 | 58 | 176 | 4.0 | 10.0 | 0.00 | 0.00 | 0.00 | 70 | 1015.9 |
| 20260507142733 | 57 | 213 | 4.0 | 10.0 | 0.00 | 0.00 | 0.00 | 72 | 1015.7 |
| 20260507142010 | 57 | 213 | 5.0 | 10.0 | 0.00 | 0.00 | 0.00 | 72 | 1015.6 |
| 20260507141952 | 57 | 177 | 4.0 | 10.0 | 0.00 | 0.00 | 0.00 | 72 | 1015.5 |
| 20260507141011 | 56 | 183 | 4.0 | 9.0 | 0.00 | 0.00 | 0.00 | 73 | 1015.4 |
| 20260507140509 | 56 | 249 | 5.0 | 10.0 | 0.00 | 0.00 | 0.00 | 73 | 1015.4 |
| 20260507140011 | 56 | 207 | 4.0 | 10.0 | 0.00 | 0.00 | 0.00 | 74 | 1015.2 |
| 20260507135735 | 55 | 162 | 4.0 | 8.0 | 0.00 | 0.00 | 0.00 | 74 | 1015.1 |
| 20260507135011 | 55 | 177 | 3.0 | 8.0 | 0.00 | 0.00 | 0.00 | 74 | 1015.0 |
| 20260507134510 | 55 | 162 | 3.0 | 6.0 | 0.00 | 0.00 | 0.00 | 74 | 1015.0 |
| 20260507134225 | 55 | 176 | 3.0 | 6.0 | 0.00 | 0.00 | 0.00 | 74 | 1015.0 |
| 20260507133510 | 55 | 196 | 3.0 | 6.0 | 0.00 | 0.00 | 0.00 | 74 | 1015.1 |
| 20260507133010 | 55 | 170 | 4.0 | 6.0 | 0.00 | 0.00 | 0.00 | 74 | 1015.1 |
| 20260507132510 | 55 | 164 | 3.0 | 7.0 | 0.00 | 0.00 | 0.00 | 74 | 1014.9 |
| 20260507132227 | 55 | 166 | 2.0 | 7.0 | 0.00 | 0.00 | 0.00 | 74 | 1015.2 |
| 20260507131458 | 55 | 187 | 2.0 | 5.0 | 0.00 | 0.00 | 0.00 | 74 | 1015.1 |
| 20260507130951 | 55 | 162 | 1.0 | 5.0 | 0.00 | 0.00 | 0.00 | 74 | 1015.0 |
| 20260507130446 | 55 | 226 | 1.0 | 5.0 | 0.00 | 0.00 | 0.00 | 73 | 1014.9 |
| 20260507130204 | 55 | 204 | 1.0 | 5.0 | 0.00 | 0.00 | 0.00 | 73 | 1014.9 |
| 20260507125659 | 55 | 174 | 2.0 | 5.0 | 0.00 | 0.00 | 0.00 | 73 | 1014.9 |
| 20260507124927 | 55 | 161 | 3.0 | 7.0 | 0.00 | 0.00 | 0.00 | 73 | 1014.8 |
| 20260507124649 | 55 | 173 | 3.0 | 7.0 | 0.00 | 0.00 | 0.00 | 73 | 1014.7 |
| 20260507123916 | 55 | 183 | 4.0 | 7.0 | 0.00 | 0.00 | 0.00 | 73 | 1014.7 |
| 20260507123409 | 55 | 203 | 5.0 | 10.0 | 0.00 | 0.00 | 0.00 | 73 | 1014.7 |
| 20260507122903 | 55 | 168 | 4.0 | 10.0 | 0.00 | 0.00 | 0.00 | 73 | 1014.7 |
| 20260507122357 | 55 | 196 | 4.0 | 9.0 | 0.00 | 0.00 | 0.00 | 73 | 1014.7 |
| 20260507121850 | 55 | 181 | 4.0 | 11.0 | 0.00 | 0.00 | 0.00 | 73 | 1014.7 |
| 20260507121345 | 55 | 175 | 5.0 | 11.0 | 0.00 | 0.00 | 0.00 | 73 | 1014.7 |
| 20260507120845 | 55 | 146 | 6.0 | 11.0 | 0.00 | 0.00 | 0.00 | 73 | 1014.7 |
| 20260507120344 | 55 | 180 | 6.0 | 11.0 | 0.00 | 0.00 | 0.00 | 73 | 1014.6 |
| 20260507115845 | 55 | 190 | 5.0 | 9.0 | 0.00 | 0.00 | 0.00 | 72 | 1014.7 |
| 20260507115600 | 55 | 174 | 5.0 | 13.0 | 0.00 | 0.00 | 0.00 | 72 | 1014.8 |
| 20260507115102 | 55 | 168 | 5.0 | 13.0 | 0.00 | 0.00 | 0.00 | 72 | 1014.8 |
| 20260507114341 | 55 | 170 | 5.0 | 9.0 | 0.00 | 0.00 | 0.00 | 72 | 1014.8 |
| 20260507114101 | 55 | 169 | 4.0 | 9.0 | 0.00 | 0.00 | 0.00 | 71 | 1014.8 |
| 20260507113343 | 55 | 147 | 4.0 | 9.0 | 0.00 | 0.00 | 0.00 | 72 | 1015.0 |
| 20260507112843 | 55 | 180 | 4.0 | 9.0 | 0.00 | 0.00 | 0.00 | 71 | 1015.0 |
| 20260507112342 | 55 | 164 | 4.0 | 9.0 | 0.00 | 0.00 | 0.00 | 71 | 1014.9 |
| 20260507111841 | 55 | 187 | 4.0 | 9.0 | 0.00 | 0.00 | 0.00 | 71 | 1014.9 |
| 20260507111340 | 55 | 194 | 4.0 | 8.0 | 0.00 | 0.00 | 0.00 | 71 | 1014.9 |
| 20260507110842 | 55 | 174 | 3.0 | 7.0 | 0.00 | 0.00 | 0.00 | 71 | 1014.9 |
| 20260507110340 | 56 | 209 | 3.0 | 7.0 | 0.00 | 0.00 | 0.00 | 71 | 1014.9 |
| 20260507105844 | 56 | 182 | 4.0 | 7.0 | 0.00 | 0.00 | 0.00 | 71 | 1014.9 |
| 20260507105604 | 56 | 160 | 3.0 | 7.0 | 0.00 | 0.00 | 0.00 | 71 | 1014.8 |
| 20260507104840 | 56 | 171 | 3.0 | 7.0 | 0.00 | 0.00 | 0.00 | 71 | 1014.9 |
| 20260507104830 | 56 | 184 | 3.0 | 7.0 | 0.00 | 0.00 | 0.00 | 71 | 1014.8 |
| 20260507103825 | 56 | 203 | 4.0 | 9.0 | 0.00 | 0.00 | 0.00 | 70 | 1014.9 |
| 20260507103319 | 56 | 180 | 4.0 | 9.0 | 0.00 | 0.00 | 0.00 | 70 | 1014.9 |
| 20260507102813 | 56 | 176 | 4.0 | 8.0 | 0.00 | 0.00 | 0.00 | 70 | 1014.8 |
| 20260507102307 | 56 | 168 | 3.0 | 8.0 | 0.00 | 0.00 | 0.00 | 69 | 1014.9 |
| 20260507101801 | 57 | 170 | 3.0 | 6.0 | 0.00 | 0.00 | 0.00 | 69 | 1014.9 |
| 20260507101255 | 57 | 161 | 4.0 | 7.0 | 0.00 | 0.00 | 0.00 | 69 | 1014.8 |
| 20260507100750 | 57 | 161 | 3.0 | 7.0 | 0.00 | 0.00 | 0.00 | 68 | 1014.8 |
| 20260507100243 | 57 | 170 | 3.0 | 7.0 | 0.00 | 0.00 | 0.00 | 68 | 1014.8 |
| 20260507095737 | 57 | 134 | 4.0 | 8.0 | 0.00 | 0.00 | 0.00 | 68 | 1014.9 |
| 20260507095232 | 57 | 215 | 4.0 | 8.0 | 0.00 | 0.00 | 0.00 | 68 | 1014.9 |
| 20260507094952 | 57 | 162 | 3.0 | 7.0 | 0.00 | 0.00 | 0.00 | 68 | 1014.8 |
| 20260507094444 | 57 | 184 | 3.0 | 5.0 | 0.00 | 0.00 | 0.00 | 67 | 1014.9 |
| 20260507093935 | 57 | 187 | 4.0 | 10.0 | 0.00 | 0.00 | 0.00 | 67 | 1014.9 |
| 20260507093207 | 57 | 203 | 3.0 | 10.0 | 0.00 | 0.00 | 0.00 | 67 | 1014.9 |
| 20260507092701 | 57 | 174 | 3.0 | 6.0 | 0.00 | 0.00 | 0.00 | 66 | 1014.8 |
| 20260507092155 | 57 | 193 | 1.0 | 6.0 | 0.00 | 0.00 | 0.00 | 65 | 1014.9 |
| 20260507091649 | 57 | 178 | 1.0 | 3.0 | 0.00 | 0.00 | 0.00 | 65 | 1014.8 |
| 20260507091408 | 58 | 204 | 2.0 | 5.0 | 0.00 | 0.00 | 0.00 | 65 | 1014.8 |
| 20260507090637 | 58 | 218 | 2.0 | 5.0 | 0.00 | 0.00 | 0.00 | 65 | 1014.7 |
| 20260507090131 | 58 | 194 | 2.0 | 5.0 | 0.00 | 0.00 | 0.00 | 64 | 1014.7 |
| 20260507085625 | 58 | 178 | 2.0 | 5.0 | 0.00 | 0.00 | 0.00 | 64 | 1014.7 |
| 20260507085119 | 58 | 168 | 1.0 | 3.0 | 0.00 | 0.00 | 0.00 | 63 | 1014.7 |
| 20260507084612 | 58 | 150 | 1.0 | 3.0 | 0.00 | 0.00 | 0.00 | 63 | 1014.8 |
| 20260507084106 | 58 | 256 | 1.0 | 3.0 | 0.00 | 0.00 | 0.00 | 63 | 1014.8 |
| 20260507083601 | 58 | 225 | 2.0 | 4.0 | 0.00 | 0.00 | 0.00 | 63 | 1014.7 |
| 20260507083055 | 58 | 264 | 3.0 | 9.0 | 0.00 | 0.00 | 0.00 | 63 | 1014.7 |
| 20260507082549 | 58 | 199 | 4.0 | 9.0 | 0.00 | 0.00 | 0.00 | 63 | 1014.6 |
| 20260507082043 | 58 | 176 | 3.0 | 8.0 | 0.00 | 0.00 | 0.00 | 64 | 1014.5 |
| 20260507081542 | 58 | 185 | 3.0 | 4.0 | 0.00 | 0.00 | 0.00 | 64 | 1014.4 |
| 20260507081042 | 58 | 228 | 2.0 | 6.0 | 0.00 | 0.00 | 0.00 | 64 | 1014.5 |
| 20260507080541 | 58 | 208 | 3.0 | 8.0 | 0.00 | 0.00 | 0.00 | 63 | 1014.6 |
| 20260507080038 | 58 | 192 | 4.0 | 8.0 | 0.00 | 0.00 | 0.00 | 63 | 1014.5 |
| 20260507075537 | 59 | 223 | 3.0 | 7.0 | 0.00 | 0.00 | 0.00 | 63 | 1014.5 |
| 20260507075306 | 59 | 186 | 2.0 | 5.0 | 0.00 | 0.00 | 0.00 | 62 | 1014.5 |
| 20260507074538 | 59 | 191 | 2.0 | 4.0 | 0.00 | 0.00 | 0.00 | 61 | 1014.5 |
| 20260507074035 | 59 | 182 | 2.0 | 6.0 | 0.00 | 0.00 | 0.00 | 62 | 1014.4 |
| 20260507073533 | 60 | 214 | 2.0 | 6.0 | 0.00 | 0.00 | 0.00 | 62 | 1014.4 |
| 20260507073032 | 60 | 162 | 1.0 | 6.0 | 0.00 | 0.00 | 0.00 | 61 | 1014.2 |
| 20260507072532 | 60 | 95 | 2.0 | 5.0 | 0.00 | 0.00 | 0.00 | 61 | 1014.2 |
| 20260507072033 | 60 | 207 | 3.0 | 7.0 | 0.00 | 0.00 | 0.00 | 60 | 1014.1 |
| 20260507071534 | 60 | 177 | 4.0 | 7.0 | 0.00 | 0.00 | 0.00 | 60 | 1014.1 |
| 20260507071027 | 61 | 167 | 4.0 | 7.0 | 0.00 | 0.00 | 0.00 | 59 | 1014.0 |
| 20260507071009 | 61 | 180 | 3.0 | 7.0 | 0.00 | 0.00 | 0.00 | 60 | 1014.1 |
| 20260507070016 | 61 | 171 | 3.0 | 6.0 | 0.00 | 0.00 | 0.00 | 59 | 1014.1 |
| 20260507065954 | 61 | 140 | 2.0 | 6.0 | 0.00 | 0.00 | 0.00 | 58 | 1014.1 |
| 20260507065003 | 62 | 162 | 2.0 | 5.0 | 0.00 | 0.00 | 0.00 | 57 | 1014.1 |
| 20260507064458 | 62 | 175 | 2.0 | 7.0 | 0.00 | 0.00 | 0.00 | 56 | 1014.1 |
| 20260507064213 | 62 | 202 | 4.0 | 9.0 | 0.00 | 0.00 | 0.00 | 56 | 1014.1 |
| 20260507063445 | 62 | 170 | 5.0 | 9.0 | 0.00 | 0.00 | 0.00 | 56 | 1014.1 |
| 20260507062939 | 63 | 142 | 5.0 | 9.0 | 0.00 | 0.00 | 0.00 | 57 | 1014.0 |
| 20260507062434 | 63 | 184 | 5.0 | 8.0 | 0.00 | 0.00 | 0.00 | 56 | 1013.9 |
| 20260507061928 | 63 | 163 | 5.0 | 9.0 | 0.00 | 0.00 | 0.00 | 55 | 1013.9 |
| 20260507061422 | 63 | 171 | 6.0 | 10.0 | 0.00 | 0.00 | 0.00 | 55 | 1013.8 |
| 20260507060922 | 63 | 165 | 5.0 | 10.0 | 0.00 | 0.00 | 0.00 | 55 | 1013.8 |
| 20260507060418 | 64 | 166 | 4.0 | 9.0 | 0.00 | 0.00 | 0.00 | 54 | 1013.8 |
| 20260507055919 | 64 | 166 | 5.0 | 12.0 | 0.00 | 0.00 | 0.00 | 54 | 1013.7 |
| 20260507055419 | 64 | 162 | 6.0 | 12.0 | 0.00 | 0.00 | 0.00 | 54 | 1013.7 |
| 20260507054918 | 64 | 200 | 5.0 | 12.0 | 0.00 | 0.00 | 0.00 | 54 | 1013.8 |
| 20260507054418 | 64 | 167 | 5.0 | 8.0 | 0.00 | 0.00 | 0.00 | 54 | 1013.9 |
| 20260507053918 | 64 | 163 | 4.0 | 9.0 | 0.00 | 0.00 | 0.00 | 54 | 1014.0 |
| 20260507053416 | 65 | 164 | 4.0 | 9.0 | 0.00 | 0.00 | 0.00 | 54 | 1013.9 |
| 20260507053139 | 65 | 164 | 2.0 | 7.0 | 0.00 | 0.00 | 0.00 | 55 | 1014.0 |
| 20260507052416 | 65 | 167 | 2.0 | 5.0 | 0.00 | 0.00 | 0.00 | 54 | 1013.9 |
| 20260507051916 | 66 | 116 | 3.0 | 5.0 | 0.00 | 0.00 | 0.00 | 54 | 1013.8 |
| 20260507051412 | 66 | 128 | 3.0 | 9.0 | 0.00 | 0.00 | 0.00 | 52 | 1013.6 |
| 20260507050913 | 66 | 217 | 3.0 | 9.0 | 0.00 | 0.00 | 0.00 | 52 | 1013.7 |
| 20260507050414 | 67 | 224 | 3.0 | 9.0 | 0.00 | 0.00 | 0.00 | 52 | 1013.7 |
| 20260507050132 | 67 | 51 | 3.0 | 9.0 | 0.00 | 0.00 | 0.00 | 52 | 1013.6 |
| 20260507045411 | 67 | 171 | 4.0 | 8.0 | 0.00 | 0.00 | 0.00 | 52 | 1013.6 |
| 20260507044911 | 67 | 160 | 4.0 | 8.0 | 0.00 | 0.00 | 0.00 | 51 | 1013.6 |
| 20260507044410 | 68 | 178 | 5.0 | 9.0 | 0.00 | 0.00 | 0.00 | 51 | 1013.5 |
| 20260507044135 | 68 | 180 | 5.0 | 10.0 | 0.00 | 0.00 | 0.00 | 51 | 1013.5 |
| 20260507043410 | 68 | 137 | 5.0 | 10.0 | 0.00 | 0.00 | 0.00 | 51 | 1013.5 |
| 20260507042912 | 68 | 170 | 4.0 | 8.0 | 0.00 | 0.00 | 0.00 | 52 | 1013.5 |
| 20260507042634 | 69 | 180 | 4.0 | 8.0 | 0.00 | 0.00 | 0.00 | 52 | 1013.5 |
| 20260507041912 | 69 | 175 | 4.0 | 8.0 | 0.00 | 0.00 | 0.00 | 51 | 1013.6 |
| 20260507041406 | 69 | 168 | 4.0 | 7.0 | 0.00 | 0.00 | 0.00 | 51 | 1013.4 |
| 20260507040907 | 69 | 214 | 3.0 | 7.0 | 0.00 | 0.00 | 0.00 | 51 | 1013.3 |
| 20260507040407 | 69 | 185 | 3.0 | 7.0 | 0.00 | 0.00 | 0.00 | 51 | 1013.2 |
| 20260507035907 | 70 | 187 | 3.0 | 9.0 | 0.00 | 0.00 | 0.00 | 50 | 1013.0 |
| 20260507035407 | 70 | 185 | 5.0 | 9.0 | 0.00 | 0.00 | 0.00 | 50 | 1012.9 |
| 20260507034906 | 70 | 174 | 5.0 | 9.0 | 0.00 | 0.00 | 0.00 | 50 | 1012.6 |
| 20260507034406 | 70 | 187 | 4.0 | 10.0 | 0.00 | 0.00 | 0.00 | 50 | 1012.4 |
| 20260507033906 | 71 | 205 | 4.0 | 10.0 | 0.00 | 0.00 | 0.00 | 49 | 1012.4 |
| 20260507033408 | 71 | 213 | 3.0 | 9.0 | 0.00 | 0.00 | 0.00 | 49 | 1012.4 |
| 20260507032903 | 71 | 230 | 3.0 | 6.0 | 0.00 | 0.00 | 0.00 | 49 | 1012.3 |
| 20260507032403 | 72 | 211 | 4.0 | 10.0 | 0.00 | 0.00 | 0.00 | 48 | 1012.3 |
| 20260507031902 | 72 | 165 | 5.0 | 11.0 | 0.00 | 0.00 | 0.00 | 48 | 1012.1 |
| 20260507031404 | 72 | 237 | 4.0 | 11.0 | 0.00 | 0.00 | 0.00 | 48 | 1012.2 |
| 20260507030902 | 72 | 160 | 5.0 | 9.0 | 0.00 | 0.00 | 0.00 | 48 | 1012.0 |
| 20260507030624 | 72 | 214 | 5.0 | 9.0 | 0.00 | 0.00 | 0.00 | 47 | 1012.0 |
| 20260507030130 | 73 | 171 | 4.0 | 8.0 | 0.00 | 0.00 | 0.00 | 48 | 1012.0 |
| 20260507025402 | 73 | 197 | 3.0 | 8.0 | 0.00 | 0.00 | 0.00 | 48 | 1011.9 |
| 20260507024904 | 73 | 178 | 3.0 | 7.0 | 0.00 | 0.00 | 0.00 | 48 | 1011.9 |
| 20260507024402 | 74 | 178 | 4.0 | 9.0 | 0.00 | 0.00 | 0.00 | 48 | 1011.9 |
| 20260507023902 | 74 | 187 | 3.0 | 9.0 | 0.00 | 0.00 | 0.00 | 48 | 1011.9 |
| 20260507023403 | 74 | 192 | 3.0 | 7.0 | 0.00 | 0.00 | 0.00 | 48 | 1011.7 |
| 20260507023122 | 74 | 149 | 2.0 | 6.0 | 0.00 | 0.00 | 0.00 | 48 | 1011.7 |
| 20260507022621 | 74 | 210 | 2.0 | 5.0 | 0.00 | 0.00 | 0.00 | 48 | 1011.8 |
| 20260507022127 | 75 | 189 | 3.0 | 5.0 | 0.00 | 0.00 | 0.00 | 48 | 1011.5 |
| 20260507021404 | 75 | 162 | 4.0 | 7.0 | 0.00 | 0.00 | 0.00 | 47 | 1011.4 |
| 20260507020903 | 75 | 167 | 4.0 | 9.0 | 0.00 | 0.00 | 0.00 | 48 | 1011.4 |
| 20260507020402 | 76 | 207 | 4.0 | 9.0 | 0.00 | 0.00 | 0.00 | 48 | 1011.2 |
| 20260507015902 | 76 | 175 | 3.0 | 7.0 | 0.00 | 0.00 | 0.00 | 48 | 1011.1 |
| 20260507015403 | 76 | 198 | 3.0 | 7.0 | 0.00 | 0.00 | 0.00 | 47 | 1011.1 |
| 20260507015121 | 76 | 181 | 3.0 | 7.0 | 0.00 | 0.00 | 0.00 | 47 | 1011.2 |
| 20260507014350 | 76 | 207 | 3.0 | 7.0 | 0.00 | 0.00 | 0.00 | 46 | 1011.1 |
| 20260507014110 | 77 | 186 | 3.0 | 7.0 | 0.00 | 0.00 | 0.00 | 48 | 1011.2 |
| 20260507013339 | 77 | 182 | 4.0 | 8.0 | 0.00 | 0.00 | 0.00 | 48 | 1011.1 |
| 20260507013053 | 77 | 188 | 4.0 | 8.0 | 0.00 | 0.00 | 0.00 | 47 | 1011.1 |
| 20260507012326 | 77 | 160 | 4.0 | 7.0 | 0.00 | 0.00 | 0.00 | 47 | 1011.1 |
| 20260507011820 | 78 | 179 | 3.0 | 7.0 | 0.00 | 0.00 | 0.00 | 47 | 1011.1 |
| 20260507011312 | 78 | 178 | 3.0 | 6.0 | 0.00 | 0.00 | 0.00 | 46 | 1011.2 |
| 20260507011033 | 78 | 243 | 3.0 | 7.0 | 0.00 | 0.00 | 0.00 | 47 | 1011.2 |
| 20260507010749 | 78 | 193 | 3.0 | 7.0 | 0.00 | 0.00 | 0.00 | 46 | 1011.2 |
| 20260507005754 | 78 | 187 | 3.0 | 9.0 | 0.00 | 0.00 | 0.00 | 46 | 1011.2 |
| 20260507005249 | 78 | 185 | 3.0 | 9.0 | 0.00 | 0.00 | 0.00 | 45 | 1011.2 |
| 20260507005012 | 78 | 193 | 3.0 | 7.0 | 0.00 | 0.00 | 0.00 | 46 | 1011.2 |
| 20260507004237 | 79 | 207 | 3.0 | 8.0 | 0.00 | 0.00 | 0.00 | 45 | 1011.1 |
| 20260507003731 | 79 | 196 | 3.0 | 8.0 | 0.00 | 0.00 | 0.00 | 46 | 1011.3 |
| 20260507003225 | 79 | 214 | 3.0 | 6.0 | 0.00 | 0.00 | 0.00 | 45 | 1011.1 |
| 20260507002719 | 79 | 240 | 4.0 | 9.0 | 0.00 | 0.00 | 0.00 | 44 | 1011.2 |
| 20260507002213 | 80 | 257 | 5.0 | 12.0 | 0.00 | 0.00 | 0.00 | 45 | 1011.1 |
| 20260507001930 | 80 | 248 | 5.0 | 12.0 | 0.00 | 0.00 | 0.00 | 44 | 1011.0 |
| 20260507001200 | 80 | 220 | 4.0 | 9.0 | 0.00 | 0.00 | 0.00 | 44 | 1011.1 |
| 20260507000655 | 80 | 205 | 4.0 | 10.0 | 0.00 | 0.00 | 0.00 | 43 | 1011.0 |
| 20260507000148 | 81 | 203 | 4.0 | 10.0 | 0.00 | 0.00 | 0.00 | 41 | 1011.0 |
| 20260507000131 | 81 | 209 | 4.0 | 10.0 | 0.00 | 0.00 | 0.00 | 40 | 1011.2 |
| 20260506235137 | 81 | 236 | 4.0 | 10.0 | 0.00 | 0.00 | 0.00 | 39 | 1011.2 |
| 20260506234630 | 81 | 234 | 5.0 | 13.0 | 0.00 | 0.00 | 0.00 | 41 | 1011.3 |
| 20260506234125 | 81 | 205 | 6.0 | 13.0 | 0.00 | 0.00 | 0.00 | 40 | 1011.2 |
| 20260506233618 | 82 | 226 | 6.0 | 13.0 | 0.00 | 0.00 | 0.00 | 40 | 1011.2 |
| 20260506233113 | 82 | 205 | 5.0 | 12.0 | 0.00 | 0.00 | 0.00 | 41 | 1011.2 |
| 20260506232607 | 82 | 235 | 5.0 | 12.0 | 0.00 | 0.00 | 0.00 | 39 | 1011.2 |
| 20260506232101 | 82 | 209 | 5.0 | 11.0 | 0.00 | 0.00 | 0.00 | 38 | 1011.2 |
| 20260506231821 | 82 | 209 | 5.0 | 11.0 | 0.00 | 0.00 | 0.00 | 40 | 1011.2 |
| 20260506231048 | 81 | 203 | 5.0 | 10.0 | 0.00 | 0.00 | 0.00 | 41 | 1011.3 |
| 20260506230543 | 81 | 238 | 5.0 | 11.0 | 0.00 | 0.00 | 0.00 | 40 | 1011.2 |
| 20260506230037 | 82 | 200 | 5.0 | 11.0 | 0.00 | 0.00 | 0.00 | 38 | 1011.2 |
| 20260506225751 | 82 | 303 | 5.0 | 11.0 | 0.00 | 0.00 | 0.00 | 41 | 1011.3 |
| 20260506225024 | 82 | 237 | 5.0 | 12.0 | 0.00 | 0.00 | 0.00 | 38 | 1011.4 |
| 20260506224518 | 83 | 304 | 5.0 | 12.0 | 0.00 | 0.00 | 0.00 | 38 | 1011.3 |
| 20260506224013 | 83 | 250 | 5.0 | 12.0 | 0.00 | 0.00 | 0.00 | 36 | 1011.4 |
| 20260506223507 | 83 | 305 | 4.0 | 12.0 | 0.00 | 0.00 | 0.00 | 34 | 1011.4 |
| 20260506223001 | 84 | 239 | 4.0 | 10.0 | 0.00 | 0.00 | 0.00 | 35 | 1011.4 |
| 20260506222455 | 84 | 237 | 5.0 | 11.0 | 0.00 | 0.00 | 0.00 | 35 | 1011.5 |
| 20260506221949 | 84 | 272 | 5.0 | 11.0 | 0.00 | 0.00 | 0.00 | 34 | 1011.5 |
| 20260506221443 | 84 | 195 | 4.0 | 10.0 | 0.00 | 0.00 | 0.00 | 35 | 1011.7 |
| 20260506220937 | 84 | 260 | 4.0 | 10.0 | 0.00 | 0.00 | 0.00 | 36 | 1011.6 |
| 20260506220431 | 83 | 280 | 4.0 | 9.0 | 0.00 | 0.00 | 0.00 | 35 | 1011.6 |
| 20260506215925 | 83 | 261 | 4.0 | 9.0 | 0.00 | 0.00 | 0.00 | 34 | 1011.8 |
| 20260506215419 | 83 | 286 | 5.0 | 13.0 | 0.00 | 0.00 | 0.00 | 34 | 1011.7 |
| 20260506215139 | 83 | 272 | 5.0 | 12.0 | 0.00 | 0.00 | 0.00 | 35 | 1011.9 |
| 20260506214625 | 84 | 179 | 7.0 | 14.0 | 0.00 | 0.00 | 0.00 | 32 | 1011.9 |
| 20260506213904 | 83 | 214 | 7.0 | 15.0 | 0.00 | 0.00 | 0.00 | 34 | 1011.9 |
| 20260506213404 | 83 | 304 | 6.0 | 15.0 | 0.00 | 0.00 | 0.00 | 35 | 1012.0 |
| 20260506212904 | 83 | 230 | 6.0 | 12.0 | 0.00 | 0.00 | 0.00 | 34 | 1012.1 |
| 20260506212404 | 83 | 254 | 6.0 | 13.0 | 0.00 | 0.00 | 0.00 | 35 | 1012.1 |
| 20260506211905 | 83 | 280 | 6.0 | 13.0 | 0.00 | 0.00 | 0.00 | 34 | 1012.2 |
| 20260506211404 | 83 | 295 | 5.0 | 13.0 | 0.00 | 0.00 | 0.00 | 34 | 1012.2 |
| 20260506210904 | 83 | 279 | 6.0 | 13.0 | 0.00 | 0.00 | 0.00 | 33 | 1012.2 |
| 20260506210404 | 83 | 255 | 7.0 | 15.0 | 0.00 | 0.00 | 0.00 | 32 | 1012.1 |
| 20260506205903 | 83 | 232 | 7.0 | 15.0 | 0.00 | 0.00 | 0.00 | 35 | 1012.2 |
| 20260506205403 | 83 | 314 | 6.0 | 14.0 | 0.00 | 0.00 | 0.00 | 32 | 1012.1 |
| 20260506204905 | 84 | 290 | 4.0 | 11.0 | 0.00 | 0.00 | 0.00 | 35 | 1012.2 |
| 20260506204405 | 83 | 193 | 5.0 | 12.0 | 0.00 | 0.00 | 0.00 | 41 | 1012.1 |
| 20260506203903 | 82 | 259 | 5.0 | 12.0 | 0.00 | 0.00 | 0.00 | 41 | 1012.2 |
| 20260506203403 | 82 | 230 | 5.0 | 11.0 | 0.00 | 0.00 | 0.00 | 42 | 1012.2 |
| 20260506202904 | 82 | 257 | 5.0 | 12.0 | 0.00 | 0.00 | 0.00 | 40 | 1012.2 |
| 20260506202625 | 82 | 223 | 7.0 | 14.0 | 0.00 | 0.00 | 0.00 | 42 | 1012.3 |
| 20260506201905 | 81 | 256 | 8.0 | 14.0 | 0.00 | 0.00 | 0.00 | 41 | 1012.2 |
| 20260506201404 | 82 | 277 | 7.0 | 14.0 | 0.00 | 0.00 | 0.00 | 39 | 1012.2 |